Location: Fort Wayne
(41.1310°N, 85.1290°W)
Time: 04:32:45
(UTC-04:00)

Vanguard 3 - Visible Passes

Search period start: 28 September 2016 00:00
Search period end: 08 October 2016 00:00
Orbit: 508 x 3266 km, 33.4° (Epoch: 26 September)

Date Brightness Start Highest point End Pass type
(mag) Time Alt. Az. Time Alt. Az. Time Alt. Az.
28 Sep 10.7 02:02:54 31° ESE 02:02:54 31° ESE 02:13:35 10° E visible
28 Sep 9.9 04:07:29 55° SSW 04:11:24 62° SSE 04:30:30 10° E visible
28 Sep 10.2 06:12:04 19° W 06:28:01 67° S 06:45:04 10° ESE visible
29 Sep 11.3 00:53:18 13° E 00:53:18 13° E 00:55:28 10° E visible
29 Sep 10.1 02:57:53 51° SE 02:57:53 51° SE 03:14:19 10° E visible
29 Sep 10.0 05:02:28 40° WSW 05:11:27 68° S 05:30:10 10° E visible
29 Sep 10.3 07:08:35 10° W 07:27:52 59° SSW 07:43:35 10° SE visible
30 Sep 10.7 01:48:17 29° ESE 01:48:17 29° ESE 01:57:21 10° E visible
30 Sep 9.8 03:52:53 62° SSW 03:54:59 64° SSE 04:14:28 10° E visible
30 Sep 10.1 05:57:28 24° W 06:11:35 66° S 06:29:21 10° ESE visible
01 Oct 11.3 00:38:43 11° E 00:38:43 11° E 00:39:21 10° E visible
01 Oct 10.2 02:43:18 49° ESE 02:43:18 49° ESE 02:58:04 10° E visible
01 Oct 9.9 04:47:53 47° WSW 04:55:01 68° S 05:14:14 10° ESE visible
01 Oct 10.3 06:52:31 10° W 07:11:24 56° SSW 07:27:50 10° SE visible
02 Oct 10.8 01:33:45 26° E 01:33:45 26° E 01:40:59 10° E visible
02 Oct 9.8 03:38:21 65° S 03:38:36 65° S 03:58:19 10° E visible
02 Oct 10.1 05:42:56 28° W 05:55:07 64° SSW 06:13:28 10° ESE visible
03 Oct 10.3 02:28:50 44° ESE 02:28:50 44° ESE 02:41:43 10° E visible
03 Oct 9.8 04:33:26 54° SW 04:38:36 67° S 04:58:10 10° ESE visible
03 Oct 10.3 06:38:01 14° W 06:54:53 53° SSW 07:11:55 10° SE visible
04 Oct 11.0 01:19:22 21° E 01:19:22 21° E 01:24:32 10° E visible
04 Oct 9.8 03:23:57 64° SSE 03:23:57 64° SSE 03:42:03 10° E visible
04 Oct 10.1 05:28:33 34° WSW 05:38:39 62° SSW 05:57:26 10° ESE visible
05 Oct 10.4 02:14:32 38° ESE 02:14:32 38° ESE 02:25:16 10° E visible
05 Oct 9.7 04:19:08 60° SW 04:22:14 66° S 04:41:58 10° ESE visible
05 Oct 10.3 06:23:44 18° W 06:38:20 50° SSW 06:55:47 10° SE visible
06 Oct 11.1 01:05:10 16° E 01:05:10 16° E 01:08:01 10° E visible
06 Oct 9.9 03:09:46 58° SE 03:09:46 58° SE 03:25:40 10° E visible
06 Oct 10.0 05:14:23 40° WSW 05:22:10 59° SSW 05:41:13 10° SE visible
07 Oct 10.6 02:00:27 31° ESE 02:00:27 31° ESE 02:08:45 10° E visible
07 Oct 9.7 04:05:04 64° SSW 04:05:55 64° S 04:25:36 10° ESE visible
07 Oct 10.3 06:09:41 22° W 06:21:47 47° SSW 06:39:26 10° SE visible
